Regional Weather Roundup
Issued by NWS

Home | Current Version | Previous Version | Text Only | Print | Product List | Glossary Off
Versions: 1 2 3 4 5 6 7 8 9 10 11 12 13 14 15 16 17 18 19 20 21 22 23 24 25 26 27 28 29 30 31 32 33 34 35 36 37 38 39 40 41 42 43 44 45 46 47 48 49 50

486
ASUS45 KSLC 250010
RWRUT

UTAH REGIONAL WEATHER ROUNDUP
NATIONAL WEATHER SERVICE SALT LAKE CITY UT
600 PM MDT THU MAY 24 2018

UTZ001>011-023>025-250100-

NORTHERN UTAH

CITY           SKY/WX    TMP DP  RH WIND       PRES   REMARKS
BRIGHAM CITY   SUNNY     82  28  14 S5        30.04S
HILL AFB       SUNNY     80  39  23 SW7       30.05F
LOGAN          SUNNY     79  42  26 W3        30.04F
OGDEN          SUNNY     81  37  20 SW8       30.03F
SALT LAKE CITY MOSUNNY   84  36  18 VRB5      29.99F
TOOELE VALLEY  SUNNY     81  46  30 N7        30.01F
WENDOVER       SUNNY     83  32  16 E7        30.00F
HEBER CITY       N/A     79  27  14 W9G20     30.09S
WEST JORDAN    SUNNY     82  40  22 S7        30.03F

$$

UTZ011>015-024>027-250100-

CENTRAL/NORTHEAST UTAH

CITY           SKY/WX    TMP DP  RH WIND       PRES   REMARKS
PROVO AIRPORT  MOSUNNY   83  29  14 CALM      30.03F
MOAB/CANYONLAN SUNNY     86  22   9 VRB5      30.00F
DELTA          SUNNY     82  25  12 W6        30.02F
PRICE          SUNNY     81  24  12 S9G18     30.10F
ROOSEVELT      MOSUNNY   82  30  15 W5        30.07F
VERNAL         MOSUNNY   82  33  17 E7        30.06F

$$

UTZ013>016-019>022-027-250100-

SOUTHERN UTAH

CITY           SKY/WX    TMP DP  RH WIND       PRES   REMARKS
BRYCE CANYON   SUNNY     73  19  13 SE8       30.23F
CEDAR CITY     SUNNY     82  14   8 SW10      30.06F
MILFORD        SUNNY     85  17   8 SW15G24   30.01F
ST GEORGE      CLEAR     91  28  10 W16       29.91F
HANKSVILLE     SUNNY     90  23   9 S8G18     30.01F
BLANDING         N/A     80  21  11 S12G17    30.20F

$$

REGIONAL REPORTS     COLORADO/ARIZONA

CITY           SKY/WX    TMP DP  RH WIND       PRES   REMARKS
CRAIG, CO      SUNNY     77  30  17 W9        30.15F
GRAND JUNCTION SUNNY     85  25  11 MISG      30.03F
RIFLE, CO      SUNNY     83  16   8 W14       30.08F
MONTROSE, CO   SUNNY     81  20  10 N6        30.10F
CORTEZ, CO     SUNNY     82  17   9 SW6G16    30.13F
COLORADO CITY    N/A     88  21   8 S7G16     30.07F
PAGE, AZ       SUNNY     89  21   8 VRB3      29.99F
GRAND CANYON   SUNNY     79  19  10 SW15G24   30.19S
KINGMAN, AZ    SUNNY     88  19   8 SW21      29.99F
FLAGSTAFF, AZ  SUNNY     72  25  17 S18G25    30.23F

$$

REGIONAL REPORTS    NEVADA/IDAHO/WYOMING

CITY           SKY/WX    TMP DP  RH WIND       PRES   REMARKS
LAS VEGAS, NV  MOSUNNY   92  33  12 SE14G21   29.87F
ELY, NY        SUNNY     76  25  15 SE15G25   30.09F
ELKO, NV       SUNNY     81  37  20 VRB3      30.00F
POCATELLO, ID  PTSUNNY   76  46  34 SW10      30.06F
BURLEY, ID     MOSUNNY   79  43  27 SW3       30.02F
FORT BRIDGER,    N/A     75  32  20 W15       30.22S
EVANSTON, WY   SUNNY     71  36  27 SW10G17   30.19F
ROCK SPRINGS,  PTSUNNY   71  38  29 SW21      30.18S

$$




USA.gov is the U.S. government's official web portal to all federal, state and local government web resources and services.